sat.trackr.live / text

‹ back to catalog

ONEWEB-0669

NORAD 55828 · 2023-029AJ

PAYLOAD ACTIVE UNKNOWN

§ Identity

Operator
Country
UK
Launch date
2023-03-09
Launch site
AFETR
Launch vehicle
Mass (kg)
RCS (m²)

Purposes: comms

External: N2YO · Heavens-Above · Gunter

§ Orbital elements

Epoch: 2026-05-25T01:38:19.327200Z

Period
109.03 min
Inclination
87.9171°
Eccentricity
0.0002445
Mean motion
13.20770438 rev/d
Perigee alt
1,179.9 km
Apogee alt
1,183.6 km
Semi-major
7,559.9 km
B*
-2.6028e-5
RAAN
279.0516°
Arg perigee
97.8408°
Mean anomaly
262.3003°
Rev number
15,809

§ Raw data

ONEWEB-06691 55828U 23029AJ  26145.06827925  .00000002  00000+0 -26028-4 0  99952 55828  87.9171 279.0516 0002445  97.8408 262.3003 13.20770438158098

JSON: /api/v1/satellites/55828 · /tle

For live sub-satellite position, see the globe view (requires WebGL).

§ Visibility from observer

Set your observer location to see the next 7 days of passes ≥ 10°. The values pass through the URL so the page stays shareable.

No JS? Fill the form by hand. The geolocation button needs JavaScript.